Regional Weather Roundup
Issued by NWS

Home | Current Version | Previous Version | Graphics & Text | Print | Product List | Glossary On
Versions: 1 2 3 4 5 6 7 8 9 10 11 12 13 14 15 16 17 18 19 20 21 22 23 24 25 26 27
000
ASUS43 KDMX 311107
RWRIA

WEATHER ROUNDUP FOR IOWA
NATIONAL WEATHER SERVICE DES MOINES IA
600 AM CDT FRI OCT 31 2014

NOTE: "FAIR" INDICATES FEW OR NO CLOUDS BELOW 12,000 FEET WITH NO
SIGNIFICANT WEATHER AND/OR OBSTRUCTIONS TO VISIBILITY.

* - THESE STATIONS ARE NOT NWS STATIONS...THUS NOT UNDER NWS
QUALITY CONTROL.  THEY ALSO DO NOT REPORT WEATHER SUCH
AS PRECIPITATION OR FOG.

IAZ001>003-012>014-020>022-031>034-043>046-311200-
   NORTHWEST IOWA

CITY           SKY/WX    TMP DP  RH WIND       PRES   REMARKS
CARROLL *      CLEAR     28  18  64 N13G21    30.47R WCI  18
CHEROKEE *     CLEAR     27  21  80 N8        30.51R WCI  18
DENISON *      CLEAR     27  21  80 N8        30.48R WCI  18
LE MARS *      CLEAR     25  21  86 N7        30.54R WCI  17
ORANGE CITY *  CLEAR     25  21  86 N8        30.51R WCI  16
SHELDON *      CLEAR     21  18  86 N6        30.51R WCI  14
SIOUX CITY     CLEAR     26  20  77 NW8       30.55R WCI  18
SPENCER        CLEAR     25  18  74 N10       30.50R WCI  15
STORM LAKE *   CLEAR     25  19  80 N10       30.48R WCI  15
$$

IAZ055>058-069>071-079>083-090>094-311200-
   SOUTHWEST IOWA

CITY           SKY/WX    TMP DP  RH WIND       PRES   REMARKS
ATLANTIC *     CLEAR     28  19  69 N15       30.46R WCI  17
AUDUBON *      CLEAR     28  18  64 N14G20    30.47R WCI  17
COUNCIL BLFS * CLEAR     30  21  69 N10G17    30.48R WCI  21
CRESTON *      CLEAR     30  18  59 N17G24    30.41R WCI  18
HARLAN  *      CLEAR     28  21  74 N12       30.51R WCI  18
LAMONI         FLURRIES  32  21  64 N20G28    30.38R WCI  20
RED OAK *      CLEAR     30  19  64 N13       30.47R WCI  20
SHENANDOAH *   CLEAR     32  21  64 N17       30.48R WCI  21
$$

IAZ047>049-059>061-072>074-084-311200-
   CENTRAL IOWA

CITY           SKY/WX    TMP DP  RH WIND       PRES   REMARKS
AMES           CLEAR     29  18  63 N18G25    30.43R WCI  16
ANKENY *       CLEAR     30  18  59 N16G22    30.43R WCI  19
CHARITON *     CLEAR     32  18  55 N24G31    30.38R WCI  19
DES MOINES     PTCLDY    32  16  51 N18G26    30.43R WCI  20
GRINNELL*      CLEAR     30  18  59 N16G25    30.38R WCI  19
KNOXVILLE *    CLEAR     32  14  47 N18G25    30.38R WCI  20
MARSHALLTOWN   CLEAR     29  16  58 N17       30.40R WCI  17
PELLA *        CLEAR     32  18  55 N17G28    30.40R WCI  21
PERRY *          N/A     30  19  64 N12       30.45R WCI  21
$$

IAZ004>006-015-016-023>025-035-036-311200-
   NORTH CENTRAL IOWA

CITY           SKY/WX    TMP DP  RH WIND       PRES   REMARKS
ALGONA *       CLEAR     27  18  69 N14G20    30.47R WCI  15
CLARION *      CLEAR     27  18  69 N16G23    30.45R WCI  14
ESTHERVILLE    CLEAR     23  17  78 N12       30.49R WCI  12
FORT DODGE *   CLEAR     27  16  63 N9        30.46R WCI  17
MASON CITY     CLEAR     26  17  68 N15       30.44R WCI  14
FOREST CITY *  CLEAR     28  19  69 N14G25    30.44R WCI  17
IOWA FALLS *     N/A     28  18  64 N13       30.43R WCI  18
$$

IAZ007>011-017>019-026>030-037>042-050>054-066-311200-
   NORTHEAST IOWA

CITY           SKY/WX    TMP DP  RH WIND       PRES   REMARKS
CEDAR RAPIDS   CLEAR     30  18  60 N17G28    30.32R WCI  18
CHARLES CITY * CLEAR     27  18  69 N16G22    30.41R WCI  14
CLINTON *      CLEAR     34  18  51 N16G24    30.25R WCI  23
DECORAH *      CLEAR     28  19  69 N13G20    30.34R WCI  18
DUBUQUE        PTCLDY    31  20  63 N21G29    30.25R WCI  18
MONTICELLO *   CLEAR     30  19  64 NW18      30.29R WCI  18
OELWEIN *      CLEAR     28  19  69 N18G26    30.35R WCI  16
WATERLOO       CLEAR     28  17  63 N23G30    30.38R WCI  14
$$

IAZ064-065-067-068-078-311200-
   EAST CENTRAL IOWA

CITY           SKY/WX    TMP DP  RH WIND       PRES   REMARKS
DAVENPORT      CLEAR     33  21  61 N16G25    30.24R WCI  23
IOWA CITY      CLEAR     33  17  51 N18G26    30.33R WCI  22
MT. PLEASANT * CLEAR     32  18  55 NW24G30   30.30R WCI  19
MUSCATINE *    CLEAR     34  18  51 N22G29    30.29R WCI  22
QUAD CITIES    PTCLDY    37  22  54 NW20G29   30.23R WCI  27
$$

IAZ062-063-075>077-085>089-095>099-311200-
   SOUTHEAST IOWA

CITY           SKY/WX    TMP DP  RH WIND       PRES   REMARKS
BURLINGTON     PTCLDY    36  20  52 N24       30.25R WCI  24
FAIRFIELD *    CLEAR     32  14  47 N20G35    30.33R WCI  20
FORT MADISON * CLEAR     37  23  56 N20G25    30.28R WCI  27
KEOKUK *       CLEAR     37  23  56 N21G26    30.26R WCI  27
OSKALOOSA *      N/A     30  16  55 N20G29    30.36R WCI  18
CENTERVILLE *  CLEAR     32  19  59 N15G25    30.36R WCI  22
OTTUMWA        CLEAR     31  14  49 N22G32    30.35R WCI  18
WASHINGTON *   CLEAR     32  16  51 N18G30    30.31R WCI  20
$$

ABBREVIATIONS USED IN REMARKS
   TC - TEMPERATURES IN CELSIUS
  WCI - WIND CHILL INDEX
   HX - HEAT INDEX
  VSB - VISIBILITY
$$




USA.gov is the U.S. government's official web portal to all federal, state and local government web resources and services.